| time (UTC) | temp C | wind direction | speed KPH | gust KPH | rain 1hr cm | rain 24hr cm | rain mn cm | humidity % | barometer mb |
| 20260505041538 | 22 | 113 | 0.0 | 3.2 | 0.00 | 0.33 | 0.00 | 91 | 1014.5 |
| 20260505041023 | 22 | 95 | 0.0 | 1.6 | 0.00 | 0.33 | 0.00 | 91 | 1014.7 |
| 20260505040523 | 22 | 0 | 0.0 | 0.0 | 0.00 | 0.33 | 0.00 | 91 | 1014.6 |
| 20260505040040 | 22 | 0 | 0.0 | 3.2 | 0.00 | 0.33 | 0.00 | 91 | 1014.4 |
| 20260505035526 | 22 | 0 | 0.0 | 4.8 | 0.00 | 0.33 | 0.33 | 90 | 1014.7 |
| 20260505035023 | 22 | 0 | 0.0 | 4.8 | 0.00 | 0.33 | 0.33 | 90 | 1014.7 |
| 20260505034537 | 22 | 96 | 1.6 | 4.8 | 0.00 | 0.33 | 0.33 | 90 | 1014.8 |
| 20260505034024 | 22 | 0 | 0.0 | 4.8 | 0.00 | 0.33 | 0.33 | 90 | 1014.5 |
| 20260505033526 | 23 | 85 | 0.0 | 3.2 | 0.00 | 0.33 | 0.33 | 90 | 1014.5 |
| 20260505033046 | 23 | 73 | 0.0 | 3.2 | 0.00 | 0.33 | 0.33 | 90 | 1014.4 |
| 20260505032524 | 23 | 98 | 0.0 | 6.4 | 0.00 | 0.33 | 0.33 | 89 | 1014.4 |
| 20260505032024 | 23 | 0 | 0.0 | 6.4 | 0.00 | 0.33 | 0.33 | 89 | 1014.3 |
| 20260505031540 | 23 | 89 | 1.6 | 6.4 | 0.00 | 0.33 | 0.33 | 89 | 1014.2 |
| 20260505031023 | 23 | 0 | 1.6 | 9.7 | 0.00 | 0.33 | 0.33 | 89 | 1014.1 |
| 20260505030524 | 23 | 101 | 3.2 | 9.7 | 0.00 | 0.33 | 0.33 | 89 | 1014.2 |
| 20260505030039 | 23 | 89 | 1.6 | 8.0 | 0.00 | 0.33 | 0.33 | 89 | 1014.3 |
| 20260505025530 | 23 | 80 | 1.6 | 9.7 | 0.00 | 0.33 | 0.33 | 89 | 1014.4 |
| 20260505025024 | 23 | 120 | 1.6 | 9.7 | 0.00 | 0.33 | 0.33 | 89 | 1014.5 |
| 20260505024602 | 23 | 0 | 3.2 | 8.0 | 0.00 | 0.33 | 0.33 | 88 | 1014.4 |
| 20260505024024 | 23 | 0 | 0.0 | 1.6 | 0.00 | 0.33 | 0.33 | 88 | 1014.3 |
| 20260505023524 | 23 | 0 | 0.0 | 4.8 | 0.00 | 0.33 | 0.33 | 88 | 1014.3 |
| 20260505023040 | 23 | 0 | 0.0 | 4.8 | 0.00 | 0.33 | 0.33 | 88 | 1014.4 |
| 20260505022524 | 23 | 107 | 0.0 | 6.4 | 0.00 | 0.33 | 0.33 | 88 | 1014.4 |
| 20260505022024 | 23 | 0 | 0.0 | 6.4 | 0.00 | 0.33 | 0.33 | 88 | 1014.4 |
| 20260505021546 | 23 | 96 | 1.6 | 4.8 | 0.00 | 0.33 | 0.33 | 88 | 1014.2 |
| 20260505021024 | 23 | 98 | 1.6 | 3.2 | 0.00 | 0.33 | 0.33 | 89 | 1014.2 |
| 20260505020525 | 23 | 108 | 0.0 | 8.0 | 0.00 | 0.33 | 0.33 | 89 | 1014.4 |
| 20260505020044 | 23 | 96 | 1.6 | 8.0 | 0.00 | 0.33 | 0.33 | 89 | 1014.6 |
| 20260505015528 | 23 | 82 | 1.6 | 6.4 | 0.00 | 0.33 | 0.33 | 90 | 1014.4 |
| 20260505015024 | 23 | 73 | 1.6 | 8.0 | 0.00 | 0.33 | 0.33 | 90 | 1014.5 |
| 20260505014540 | 23 | 101 | 3.2 | 8.0 | 0.00 | 0.33 | 0.33 | 90 | 1014.2 |
| 20260505014026 | 22 | 117 | 1.6 | 6.4 | 0.00 | 0.33 | 0.33 | 90 | 1014.3 |
| 20260505013523 | 22 | 91 | 3.2 | 6.4 | 0.00 | 0.33 | 0.33 | 91 | 1014.2 |
| 20260505013038 | 22 | 49 | 1.6 | 6.4 | 0.00 | 0.33 | 0.33 | 91 | 1014.2 |
| 20260505012523 | 22 | 89 | 1.6 | 11.3 | 0.00 | 0.33 | 0.33 | 91 | 1014.2 |
| 20260505012025 | 22 | 101 | 1.6 | 11.3 | 0.00 | 0.33 | 0.33 | 91 | 1014.1 |
| 20260505011548 | 22 | 91 | 1.6 | 12.9 | 0.00 | 0.33 | 0.33 | 91 | 1014.1 |
| 20260505011025 | 22 | 87 | 3.2 | 12.9 | 0.00 | 0.33 | 0.33 | 91 | 1013.9 |
| 20260505010528 | 22 | 80 | 4.8 | 12.9 | 0.00 | 0.33 | 0.33 | 90 | 1014.0 |
| 20260505010039 | 22 | 87 | 3.2 | 12.9 | 0.00 | 0.33 | 0.33 | 90 | 1014.0 |
| 20260505005524 | 22 | 136 | 4.8 | 16.1 | 0.00 | 0.33 | 0.33 | 89 | 1014.2 |
| 20260505005024 | 23 | 91 | 6.4 | 16.1 | 0.00 | 0.33 | 0.33 | 90 | 1014.3 |
| 20260505004545 | 23 | 95 | 3.2 | 12.9 | 0.03 | 0.33 | 0.33 | 90 | 1014.0 |
| 20260505004025 | 23 | 70 | 3.2 | 9.7 | 0.05 | 0.33 | 0.33 | 90 | 1014.0 |
| 20260505003523 | 23 | 84 | 3.2 | 11.3 | 0.08 | 0.33 | 0.33 | 90 | 1014.0 |
| 20260505003039 | 23 | 94 | 3.2 | 11.3 | 0.08 | 0.33 | 0.33 | 90 | 1013.8 |
| 20260505002524 | 23 | 88 | 4.8 | 11.3 | 0.08 | 0.33 | 0.33 | 90 | 1013.9 |
| 20260505002024 | 23 | 71 | 3.2 | 11.3 | 0.08 | 0.33 | 0.33 | 90 | 1013.8 |
| 20260505001538 | 23 | 77 | 3.2 | 19.3 | 0.08 | 0.33 | 0.33 | 90 | 1013.8 |
| 20260505001023 | 23 | 85 | 4.8 | 19.3 | 0.08 | 0.33 | 0.33 | 90 | 1013.7 |
| 20260505000523 | 23 | 86 | 4.8 | 11.3 | 0.08 | 0.33 | 0.33 | 90 | 1013.8 |
| 20260505000040 | 23 | 64 | 1.6 | 11.3 | 0.08 | 0.33 | 0.33 | 90 | 1013.7 |
| 20260504235524 | 23 | 98 | 3.2 | 9.7 | 0.08 | 0.76 | 0.33 | 89 | 1013.9 |
| 20260504235025 | 23 | 86 | 1.6 | 12.9 | 0.08 | 0.76 | 0.33 | 88 | 1013.8 |
| 20260504234537 | 23 | 89 | 3.2 | 12.9 | 0.05 | 0.74 | 0.30 | 87 | 1013.7 |
| 20260504234024 | 24 | 59 | 4.8 | 12.9 | 0.00 | 0.69 | 0.25 | 85 | 1013.6 |
| 20260504233524 | 24 | 90 | 4.8 | 16.1 | 0.00 | 0.69 | 0.25 | 82 | 1013.6 |
| 20260504233055 | 24 | 72 | 6.4 | 17.7 | 0.00 | 0.69 | 0.25 | 80 | 1013.6 |
| 20260504232524 | 24 | 106 | 4.8 | 17.7 | 0.00 | 0.69 | 0.25 | 80 | 1013.5 |
| 20260504232023 | 25 | 73 | 8.0 | 17.7 | 0.00 | 0.69 | 0.25 | 80 | 1013.4 |
| 20260504231540 | 25 | 109 | 3.2 | 11.3 | 0.00 | 0.69 | 0.25 | 80 | 1013.6 |
| 20260504231023 | 25 | 78 | 6.4 | 12.9 | 0.00 | 0.69 | 0.25 | 80 | 1013.3 |
| 20260504230525 | 25 | 122 | 6.4 | 12.9 | 0.00 | 0.69 | 0.25 | 79 | 1013.2 |
| 20260504230043 | 25 | 92 | 6.4 | 20.9 | 0.00 | 0.69 | 0.25 | 79 | 1013.2 |
| 20260504225525 | 25 | 95 | 6.4 | 20.9 | 0.00 | 0.69 | 0.25 | 79 | 1013.2 |
| 20260504225023 | 25 | 183 | 6.4 | 14.5 | 0.00 | 0.69 | 0.25 | 79 | 1013.3 |
| 20260504224538 | 25 | 144 | 6.4 | 19.3 | 0.00 | 0.69 | 0.25 | 79 | 1013.4 |
| 20260504224023 | 25 | 101 | 6.4 | 19.3 | 0.00 | 0.69 | 0.25 | 79 | 1013.3 |
| 20260504223524 | 25 | 68 | 8.0 | 16.1 | 0.00 | 0.69 | 0.25 | 79 | 1013.4 |
| 20260504223040 | 25 | 115 | 9.7 | 16.1 | 0.00 | 0.69 | 0.25 | 79 | 1013.4 |
| 20260504222525 | 25 | 75 | 4.8 | 14.5 | 0.00 | 0.69 | 0.25 | 79 | 1013.3 |
| 20260504222024 | 25 | 88 | 3.2 | 14.5 | 0.00 | 0.69 | 0.25 | 80 | 1013.4 |
| 20260504221540 | 25 | 103 | 3.2 | 20.9 | 0.00 | 0.69 | 0.25 | 81 | 1013.4 |
| 20260504221025 | 25 | 91 | 4.8 | 20.9 | 0.00 | 0.69 | 0.25 | 81 | 1013.4 |
| 20260504220526 | 25 | 63 | 4.8 | 20.9 | 0.00 | 0.69 | 0.25 | 81 | 1013.1 |
| 20260504215524 | 25 | 94 | 4.8 | 14.5 | 0.00 | 0.69 | 0.25 | 81 | 1013.1 |
| 20260504215024 | 25 | 84 | 6.4 | 14.5 | 0.00 | 0.69 | 0.25 | 82 | 1013.2 |
| 20260504214542 | 24 | 78 | 3.2 | 11.3 | 0.00 | 0.69 | 0.25 | 83 | 1013.3 |
| 20260504214023 | 24 | 93 | 4.8 | 11.3 | 0.00 | 0.69 | 0.25 | 83 | 1013.4 |
| 20260504213525 | 24 | 71 | 6.4 | 11.3 | 0.00 | 0.69 | 0.25 | 84 | 1013.4 |
| 20260504213038 | 24 | 75 | 3.2 | 6.4 | 0.00 | 0.69 | 0.25 | 86 | 1013.5 |
| 20260504212524 | 24 | 92 | 0.0 | 8.0 | 0.00 | 0.69 | 0.25 | 87 | 1013.6 |
| 20260504212027 | 24 | 85 | 3.2 | 16.1 | 0.00 | 0.69 | 0.25 | 86 | 1013.5 |
| 20260504211537 | 24 | 117 | 3.2 | 16.1 | 0.00 | 0.69 | 0.25 | 86 | 1013.6 |
| 20260504211024 | 24 | 96 | 1.6 | 12.9 | 0.00 | 0.69 | 0.25 | 86 | 1013.6 |
| 20260504210526 | 24 | 94 | 3.2 | 14.5 | 0.00 | 0.69 | 0.25 | 85 | 1013.6 |
| 20260504210037 | 25 | 59 | 4.8 | 14.5 | 0.00 | 0.69 | 0.25 | 85 | 1013.7 |
| 20260504205527 | 25 | 96 | 6.4 | 12.9 | 0.00 | 0.69 | 0.25 | 86 | 1013.6 |
| 20260504205023 | 24 | 85 | 4.8 | 12.9 | 0.00 | 0.69 | 0.25 | 87 | 1013.7 |
| 20260504204557 | 23 | 63 | 3.2 | 14.5 | 0.00 | 0.69 | 0.25 | 89 | 1013.7 |
| 20260504204024 | 23 | 99 | 3.2 | 17.7 | 0.00 | 0.69 | 0.25 | 90 | 1013.6 |
| 20260504203525 | 23 | 82 | 8.0 | 17.7 | 0.00 | 0.69 | 0.25 | 89 | 1013.6 |
| 20260504203042 | 23 | 140 | 8.0 | 17.7 | 0.00 | 0.69 | 0.25 | 88 | 1013.6 |
| 20260504202525 | 23 | 110 | 8.0 | 16.1 | 0.00 | 0.69 | 0.25 | 87 | 1013.7 |
| 20260504202025 | 24 | 106 | 6.4 | 20.9 | 0.00 | 0.69 | 0.25 | 86 | 1013.8 |
| 20260504201539 | 24 | 71 | 8.0 | 20.9 | 0.00 | 0.69 | 0.25 | 84 | 1014.0 |
| 20260504201024 | 25 | 82 | 8.0 | 20.9 | 0.00 | 0.69 | 0.25 | 82 | 1014.0 |
| 20260504200524 | 25 | 127 | 4.8 | 16.1 | 0.00 | 0.69 | 0.25 | 80 | 1014.0 |
| 20260504200043 | 26 | 100 | 6.4 | 17.7 | 0.00 | 0.69 | 0.25 | 79 | 1014.0 |
| 20260504195524 | 25 | 85 | 6.4 | 17.7 | 0.00 | 0.69 | 0.25 | 77 | 1014.0 |
| 20260504195024 | 26 | 148 | 8.0 | 17.7 | 0.00 | 0.69 | 0.25 | 75 | 1014.1 |
| 20260504194541 | 26 | 65 | 8.0 | 19.3 | 0.00 | 0.69 | 0.25 | 75 | 1013.9 |
| 20260504194024 | 26 | 72 | 6.4 | 19.3 | 0.00 | 0.69 | 0.25 | 75 | 1013.9 |
| 20260504193525 | 26 | 153 | 6.4 | 22.5 | 0.00 | 0.69 | 0.25 | 76 | 1013.9 |
| 20260504193037 | 26 | 336 | 6.4 | 22.5 | 0.00 | 0.69 | 0.25 | 74 | 1014.1 |
| 20260504192525 | 26 | 77 | 9.7 | 22.5 | 0.00 | 0.69 | 0.25 | 73 | 1014.1 |
| 20260504192024 | 27 | 65 | 8.0 | 20.9 | 0.00 | 0.69 | 0.25 | 74 | 1014.1 |
| 20260504191541 | 26 | 90 | 8.0 | 20.9 | 0.00 | 0.69 | 0.25 | 75 | 1014.2 |
| 20260504191028 | 26 | 356 | 6.4 | 17.7 | 0.00 | 0.69 | 0.25 | 75 | 1014.2 |
| 20260504190525 | 26 | 98 | 6.4 | 17.7 | 0.00 | 0.69 | 0.25 | 74 | 1014.3 |
| 20260504190040 | 26 | 74 | 4.8 | 25.7 | 0.00 | 0.69 | 0.25 | 76 | 1014.4 |
| 20260504185523 | 26 | 96 | 8.0 | 25.7 | 0.00 | 0.69 | 0.25 | 74 | 1014.6 |
| 20260504185024 | 26 | 83 | 4.8 | 19.3 | 0.00 | 0.69 | 0.25 | 75 | 1014.8 |
| 20260504184539 | 26 | 271 | 6.4 | 24.1 | 0.00 | 0.69 | 0.25 | 76 | 1014.8 |
| 20260504184024 | 26 | 122 | 6.4 | 24.1 | 0.00 | 0.69 | 0.25 | 77 | 1014.8 |
| 20260504183524 | 26 | 41 | 9.7 | 22.5 | 0.00 | 0.69 | 0.25 | 76 | 1014.8 |
| 20260504183037 | 26 | 153 | 9.7 | 22.5 | 0.00 | 0.69 | 0.25 | 77 | 1014.9 |
| 20260504182524 | 26 | 72 | 6.4 | 20.9 | 0.00 | 0.69 | 0.25 | 78 | 1014.9 |
| 20260504182024 | 26 | 101 | 6.4 | 20.9 | 0.00 | 0.69 | 0.25 | 78 | 1014.9 |
| 20260504181542 | 25 | 112 | 6.4 | 20.9 | 0.00 | 0.69 | 0.25 | 80 | 1014.9 |
| 20260504181024 | 25 | 84 | 8.0 | 19.3 | 0.00 | 0.69 | 0.25 | 82 | 1014.9 |
| 20260504180523 | 25 | 167 | 4.8 | 11.3 | 0.00 | 0.69 | 0.25 | 84 | 1014.9 |
| 20260504180041 | 24 | 93 | 3.2 | 11.3 | 0.03 | 0.69 | 0.25 | 86 | 1015.0 |
| 20260504175523 | 24 | 84 | 4.8 | 12.9 | 0.05 | 0.69 | 0.25 | 87 | 1014.9 |
| 20260504175024 | 24 | 84 | 3.2 | 12.9 | 0.08 | 0.69 | 0.25 | 88 | 1014.9 |
| 20260504174540 | 23 | 119 | 4.8 | 11.3 | 0.10 | 0.69 | 0.25 | 89 | 1014.9 |
| 20260504174024 | 23 | 84 | 6.4 | 14.5 | 0.10 | 0.69 | 0.25 | 90 | 1015.0 |
| 20260504173524 | 23 | 98 | 4.8 | 16.1 | 0.10 | 0.69 | 0.25 | 90 | 1015.2 |
| 20260504173039 | 23 | 55 | 6.4 | 16.1 | 0.10 | 0.69 | 0.25 | 90 | 1015.3 |
| 20260504172527 | 23 | 133 | 4.8 | 16.1 | 0.10 | 0.69 | 0.25 | 90 | 1015.4 |
| 20260504172023 | 23 | 70 | 3.2 | 12.9 | 0.10 | 0.69 | 0.25 | 90 | 1015.4 |
| 20260504171539 | 23 | 146 | 4.8 | 19.3 | 0.10 | 0.69 | 0.25 | 89 | 1015.4 |
| 20260504171025 | 23 | 146 | 6.4 | 19.3 | 0.10 | 0.69 | 0.25 | 89 | 1015.4 |
| 20260504170524 | 23 | 85 | 3.2 | 12.9 | 0.10 | 0.69 | 0.25 | 88 | 1015.3 |
| 20260504151039 | 26 | 115 | 6.4 | 20.9 | 0.00 | 0.58 | 0.15 | 77 | 1015.2 |
| 20260504150527 | 26 | 142 | 6.4 | 14.5 | 0.00 | 0.58 | 0.15 | 77 | 1015.2 |
| 20260504141024 | 26 | 334 | 0.0 | 9.7 | 0.00 | 0.58 | 0.15 | 81 | 1015.0 |
| 20260504140524 | 26 | 1 | 3.2 | 8.0 | 0.00 | 0.58 | 0.15 | 81 | 1014.9 |
| 20260504130525 | 24 | 0 | 0.0 | 4.8 | 0.00 | 0.58 | 0.15 | 93 | 1014.8 |
| 20260504110524 | -17 | 0.0 | 0.0 | 0.00 | 0.58 | 0.15 | 1013.7 | ||
| 20260504100524 | -17 | 0.0 | 0.0 | 0.00 | 0.58 | 0.15 | 1013.7 | ||
| 20260504081546 | -17 | 0.0 | 0.0 | 0.15 | 0.58 | 0.15 | 97 | 1012.9 | |
| 20260504081024 | -17 | 0 | 0.0 | 0.0 | 0.15 | 0.58 | 0.15 | 97 | 1012.9 |
| 20260504080525 | 21 | 0 | 0.0 | 0.0 | 0.15 | 0.58 | 0.15 | 97 | 1012.8 |
| 20260504050524 | 22 | 0 | 0.0 | 0.0 | 0.00 | 0.43 | 0.00 | 97 | 1014.9 |
| 20260504045523 | 22 | 0 | 0.0 | 0.0 | 0.00 | 0.43 | 0.00 | 97 | 1014.7 |